This is the latest recevied weather packets stored in our database for station/object AC1IX. If no packets are shown the sender has not sent any weather packets the latest 10 day(s).
| Time | Temp. | Humidity | Pressure | Rain* | Wind** | Luminosity | Snow |
|---|---|---|---|---|---|---|---|
| 1778086841 | 15° C | 99% | 1007.5 hPa | 1.27 mm | - | 66 W/m² | - |
| 1778086540 | 15° C | 99% | 1007.9 hPa | 4.32 mm | - | 58 W/m² | - |
| 1778086236 | 15° C | 99% | 1008 hPa | 4.83 mm | - | 63 W/m² | - |
| 1778085933 | 15° C | 99% | 1008 hPa | 3.05 mm | - | 58 W/m² | - |
| 1778085630 | 15° C | 99% | 1008.1 hPa | 3.05 mm | - | 68 W/m² | - |
| 1778085326 | 15° C | 99% | 1008 hPa | 3.56 mm | - | 38 W/m² | - |
| 1778085022 | 15° C | 99% | 1008.2 hPa | 3.05 mm | - | 49 W/m² | - |
| 1778084718 | 15° C | 99% | 1008 hPa | 3.05 mm | - | 63 W/m² | - |
| 1778084415 | 15° C | 99% | 1008.2 hPa | 3.05 mm | - | 62 W/m² | - |
| 1778084114 | 15° C | 99% | 1008.5 hPa | 3.05 mm | - | 37 W/m² | - |
| 1778083810 | 15° C | 99% | 1008.4 hPa | 3.05 mm | - | 42 W/m² | - |
| 1778083508 | 15° C | 99% | 1008.4 hPa | 1.27 mm | - | 29 W/m² | - |
| 1778083205 | 15° C | 99% | 1008.4 hPa | 1.78 mm | - | 53 W/m² | - |
| 1778082903 | 15° C | 99% | 1008.1 hPa | 1.78 mm | - | 77 W/m² | - |
| 1778081794 | 15° C | 99% | 1008.3 hPa | 1.78 mm | - | 86 W/m² | - |
| 1778081491 | 15° C | 99% | 1008.3 hPa | 1.27 mm | - | 93 W/m² | - |
| 1778081188 | 15° C | 99% | 1008.4 hPa | 1.27 mm | - | 64 W/m² | - |
| 1778080886 | 15° C | 99% | 1008.5 hPa | 1.78 mm | - | 77 W/m² | - |
| 1778080585 | 14.44° C | 99% | 1008.6 hPa | 1.78 mm | - | 76 W/m² | - |
| 1778080281 | 14.44° C | 99% | 1008.6 hPa | 0 mm | - | 60 W/m² | - |
| 1778079978 | 14.44° C | 98% | 1008.8 hPa | 1.27 mm | - | 58 W/m² | - |
| 1778079675 | 14.44° C | 97% | 1009 hPa | 1.27 mm | - | 66 W/m² | - |
| 1778079372 | 14.44° C | 97% | 1008.9 hPa | 1.78 mm | - | 67 W/m² | - |
| 1778079069 | 15° C | 95% | 1009.1 hPa | 3.56 mm | - | 58 W/m² | - |
| 1778078766 | 15° C | 94% | 1009.2 hPa | 1.78 mm | - | 47 W/m² | - |
* Rain latest hour (hover to see other rain measurements)
** Current wind speed in m/s (hover to see current wind gust speed)